This is the latest recevied weather packets stored in our database for station/object K2ATL. If no packets are shown the sender has not sent any weather packets the latest 1 day(s).
| Time | Temp. | Humidity | Pressure | Rain* | Wind** | Luminosity | Snow |
|---|---|---|---|---|---|---|---|
| 1778015180 | 23.89° C | 37% | 1098.9 hPa | 0 mm | 1.79 m/s, 204° | 206 W/m² | - |
| 1778014877 | 24.44° C | 34% | 1099.1 hPa | 0 mm | 2.24 m/s, 132° | 353 W/m² | - |
| 1778014575 | 23.89° C | 36% | 1099.1 hPa | 0 mm | 2.68 m/s, 52° | 720 W/m² | - |
| 1778014273 | 25° C | 37% | 1099.1 hPa | 0 mm | 3.13 m/s, 147° | 404 W/m² | - |
| 1778013970 | 25° C | 37% | 1099 hPa | 0 mm | 3.58 m/s, 136° | 458 W/m² | - |
| 1778013667 | 25.56° C | 33% | 1098.9 hPa | 0 mm | 1.34 m/s, 72° | 666 W/m² | - |
| 1778013364 | 26.11° C | 35% | 1099 hPa | 0 mm | 0.89 m/s, 133° | 668 W/m² | - |
| 1778013061 | 25.56° C | 35% | 1099 hPa | 0 mm | 2.24 m/s, 147° | 694 W/m² | - |
| 1778012756 | 26.11° C | 36% | 1099.1 hPa | 0 mm | 0.89 m/s, 169° | 698 W/m² | - |
| 1778012453 | 25° C | 35% | 1099.1 hPa | 0 mm | 0.45 m/s, 147° | 740 W/m² | - |
| 1778012150 | 23.89° C | 40% | 1098.9 hPa | 0 mm | 0.45 m/s, 124° | 768 W/m² | - |
| 1778011847 | 25° C | 38% | 1099 hPa | 0 mm | 1.34 m/s, 127° | 612 W/m² | - |
| 1778011545 | 25° C | 35% | 1099.1 hPa | 0 mm | 2.24 m/s, 156° | 702 W/m² | - |
| 1778011242 | 25° C | 37% | 1099.1 hPa | 0 mm | 0.89 m/s, 131° | 750 W/m² | - |
| 1778010938 | 25° C | 36% | 1099.2 hPa | 0 mm | 0.45 m/s, 138° | 757 W/m² | - |
| 1778010636 | 25° C | 36% | 1099.6 hPa | 0 mm | 0.45 m/s, 155° | 794 W/m² | - |
| 1778010333 | 24.44° C | 35% | 1099.3 hPa | 0 mm | 2.24 m/s, 22° | 775 W/m² | - |
| 1778010028 | 23.89° C | 36% | 1099.4 hPa | 0 mm | 2.24 m/s, 153° | 793 W/m² | - |
| 1778009725 | 23.89° C | 37% | 1099.3 hPa | 0 mm | 2.68 m/s, 157° | 838 W/m² | - |
| 1778009423 | 24.44° C | 37% | 1099.4 hPa | 0 mm | 2.24 m/s, 156° | 821 W/m² | - |
| 1778009121 | 24.44° C | 37% | 1099.5 hPa | 0 mm | 3.13 m/s, 143° | 871 W/m² | - |
| 1778008818 | 25° C | 36% | 1099.7 hPa | 0 mm | 2.24 m/s, 12° | 896 W/m² | - |
| 1778008516 | 24.44° C | 37% | 1099.9 hPa | 0 mm | 0.89 m/s, 222° | 940 W/m² | - |
| 1778008214 | 23.33° C | 37% | 1099.7 hPa | 0 mm | 0.89 m/s, 139° | 838 W/m² | - |
| 1778007908 | 23.33° C | 40% | 1100.1 hPa | 0 mm | 2.24 m/s, 202° | 742 W/m² | - |
* Rain latest hour (hover to see other rain measurements)
** Current wind speed in m/s (hover to see current wind gust speed)